NOAA 16 DEB, 41150

Orbit data source: Space-Track

NOAA 16 DEB, 41150 is space debris in SSO originally from a launch on Thu, 21 Sep 2000 UTC launched from the Air Force Western Test Range (AFWTR). Debris objects in space refer to the collection of defunct objects orbiting the Earth. Examples of debris include non-operational satellites, rocket bodies, and fragments generated from explosions, collisions, or faulty payload assembly.

Loading next visibility...
Identifier
41150, 2000-055CH
Orbit
SSO
Country
Flag of USUS
Related business
Manufacturer
Unknown
Mission
Spacecraft
Bus & Motor
Unknown
Mass
Unknown
Launch date (UTC)
2000-09-21 (25 years ago)
Launch vehicle
Unknown
Launch site
Air Force Western Test Range (AFWTR)
Object type
Payload
Rocket body
Debris
Shape & HBR
Unknown
Radar Cross Section
Small (<0.1 m²)

Expand to show TLE details & history
Last TLE update: 2 days ago

TLE from 2 days ago
0 NOAA 16 DEB
1 41150U 00055CH  25259.40653797  .00022347  00000-0  37176-2 0  9999
2 41150  98.8103  60.7689 0030424  92.8408 267.6278 14.69771612511900
Epoch: 2025-09-16T09:45Z
TLE epoch observation values (Epoch: 2025-09-16T09:45:24.88Z)
Latitude
-0.00005°
Longitude
-81.18205°
Altitude
665.728 km
Speed
7.524 km/s
True Right ascension
04h 03m 04s
True Declination
0° 00' 00"
Sunlit
Object was in daylight at epoch
Visualization orbit readout
Latitude
Unknown
Longitude
Unknown
Altitude
Unknown
Speed
Unknown
Apparent Right ascension
Unknown
Apparent Declination
Unknown
Sunlit
N/A
Visualization observer readout
Local Sidereal Time
04:05:51
Azimuth
Unknown
Elevation
Unknown
Doppler factor
Unknown
Orbital elements
Apogee altitude
680.304 km
Perigee altitude
637.485 km
Semi-major axis
7,037.032 km
Eccentricity
0.00304
Inclination
98.8103°
RAAN
60.7689°
Arg. of periapsis
92.8408°
True anomaly
267.27952°
Mean anomaly
267.6278°
Eccentric anomaly
267.45366°
Mean motion
3.67671 °/min
Orbital period
97.91 mins
BSTAR
0.0037176
Loading maneuver chart data...
Computing Atmospheric mass density...
Loading historical data...
Loading historical data...
Loading historical data...
Loading historical data...
Loading historical data...
Loading historical data...
Loading historical data...

Documentation

Showing up to 5 results
|